Starlink 34549

operational
NORAD ID: 65017 Int'l Des: 2025-161 Owner: SPXS Country: US Constellation: starlink
LEOCIRCULAR

Starlink 34549について

説明を読み込み中...

リアルタイム位置

3D地球を読み込み中...

次回通過

高度履歴

Altitude vs Time

uPlot chart will show altitude changes over time

軌道要素

1 65017U 25161C 26095.46244667 .00025750 00000-0 87803-3 0 9993
2 65017 53.1599 169.5058 0001935 79.4391 280.6828 15.30218066 39545
Epoch: Apr 5, 2026 • Age: 6 hours

現在のステータス

高度 494.6 km
速度 7.62 km/s
衛星直下点 -52.28°S, 25.25°W
打ち上げ日 Jul 30, 2025
運用期間 0.6 years
タイプ internet

技術仕様

分類 Payload
質量 575.00 kg
乾燥質量 530.00 kg
総質量 575.00 kg
長さ 0.30 m
直径 4.10 m
スパン 29.00 m
形状 Box + pan
製造者 SPXS
バスタイプ Starlink V2MO
フェーズステータス In Orbit
所有者/国 SPXS/US

大規模コンステレーション

Loading constellations...